Flag for Germany

Past Weather in 50°00'09"N, 8°39'15"E, Germany — Yesterday and Last 2 Weeks

Now
46 °F

Clear.


Feels Like: 42 °F
Forecast: 71 / 42 °F
Wind: 8 mph from North

Location: Frankfurt-M-Flughafen Airport

Current Time: Apr 6, 2020 at 4:05:35 am

Latest Report: Apr 6, 2020 at 3:20 am


Visibility: 10 mi

Pressure: 30.12 "Hg

Humidity: 57%

Dew Point: 32 °F

Location of 50°00'09"N, 8°39'15"ELocation

Past Weather in 50°00'09"N, 8°39'15"E — Graph

°F

50°00'09"N, 8°39'15"E Temperature Yesterday

Maximum temperature yesterday: 66 °F (at 4:20 pm)
Minimum temperature yesterday: 39 °F (at 7:20 am)
Average temperature yesterday: 54 °F

High & Low Weather Summary for the Past Weeks

 TemperatureHumidityPressure
High66 °F (Apr 5, 4:20 pm)87% (Apr 4, 4:50 am)30.57 "Hg (Apr 4, 4:50 am)
Low27 °F (Mar 23, 6:20 am)16% (Mar 25, 4:50 pm)29.80 "Hg (Apr 2, 6:20 pm)
Average44 °F48%30.22 "Hg
* Reported Mar 22 1:20 am — Apr 6 2:50 am, 50°00'09"N, 8°39'15"E. Weather by CustomWeather, © 2020

Note: Actual official high and low records may vary slightly from our data, if they occured in-between our weather recording intervals... More about our weather records

50°00'09"N, 8°39'15"E Weather History for the Previous 24 Hours

Scroll right to see more
 ConditionsComfort  
Time TempWeatherWind HumidityBarometerVisibility
2:50 am
Mon, Apr 6
46 °FClear.9 mph57%30.12 "Hg10 mi
2:20 am45 °FClear.2 mph61%30.12 "Hg10 mi
1:50 am45 °FClear.7 mph57%30.12 "Hg10 mi
1:20 am48 °FClear.8 mph50%30.12 "Hg10 mi
12:50 am45 °FClear.7 mph61%30.12 "Hg10 mi
12:20 am48 °FClear.8 mph50%30.12 "Hg10 mi
11:50 pm
Sun, Apr 5
48 °FClear.7 mph54%30.12 "Hg10 mi
11:20 pm50 °FClear.7 mph50%30.12 "Hg10 mi
10:50 pm50 °FClear.7 mph50%30.12 "Hg10 mi
9:50 pm57 °FClear.7 mph39%30.12 "Hg10 mi
9:20 pm61 °FClear.7 mph34%30.12 "Hg10 mi
8:50 pm59 °FClear.8 mph36%30.12 "Hg10 mi
8:20 pm59 °FClear.9 mph36%30.12 "Hg10 mi
7:50 pm63 °FSunny.10 mph30%30.12 "Hg10 mi
7:20 pm64 °FSunny.14 mph28%30.12 "Hg10 mi
6:50 pm66 °FPassing clouds.15 mph26%30.12 "HgN/A
6:20 pm66 °FSunny.15 mph26%30.12 "Hg10 mi
5:50 pm66 °FPassing clouds.13 mph26%30.12 "HgN/A
5:20 pm66 °FPassing clouds.12 mph28%30.12 "HgN/A
4:50 pm66 °FPassing clouds.14 mph28%30.15 "HgN/A
4:20 pm66 °FSunny.15 mph28%30.15 "Hg10 mi
3:50 pm64 °FPassing clouds.12 mph32%30.18 "HgN/A
3:20 pm64 °FSunny.15 mph32%30.18 "Hg10 mi
2:50 pm64 °FPassing clouds.13 mph32%30.18 "HgN/A
2:20 pm64 °FSunny.14 mph32%30.21 "Hg10 mi
1:50 pm63 °FPassing clouds.14 mph32%30.21 "HgN/A
1:20 pm63 °FSunny.15 mph34%30.21 "Hg10 mi
12:50 pm61 °FSunny.15 mph36%30.24 "Hg10 mi
12:20 pm59 °FPassing clouds.16 mph36%30.24 "HgN/A
11:50 am59 °FSunny.17 mph36%30.24 "Hg10 mi
11:20 am57 °FPassing clouds.13 mph41%30.27 "HgN/A
10:50 am55 °FSunny.14 mph47%30.27 "Hg10 mi
10:20 am54 °FSunny.12 mph47%30.27 "Hg10 mi
9:50 am52 °FPassing clouds.13 mph50%30.27 "HgN/A
9:20 am50 °FSunny.12 mph54%30.27 "Hg10 mi
8:50 am46 °FSunny.12 mph62%30.27 "Hg10 mi
8:20 am45 °FSunny.12 mph66%30.27 "Hg10 mi
7:50 am41 °FPassing clouds.9 mph70%30.27 "HgN/A
7:20 am39 °FSunny.8 mph75%30.27 "Hg10 mi
6:50 am41 °FClear.8 mph70%30.27 "Hg10 mi
6:20 am43 °FClear.8 mph66%30.24 "Hg10 mi
5:50 am43 °FClear.8 mph66%30.24 "Hg10 mi
5:20 am45 °FClear.8 mph61%30.24 "Hg10 mi
4:50 am45 °FClear.10 mph61%30.24 "Hg10 mi
4:20 am43 °FClear.9 mph66%30.24 "Hg10 mi
Weather by CustomWeather, © 2020

See weather overview

Advertising